Location: Asheville, NC
(35.6000°N, 82.5500°W)
Time: 04:40:45
(UTC-05:00)

KAITUO 1B - Pass Details

Date: 11 January 2018
Orbit: 499 x 522 km, 97.5° (Epoch: 22 January)

Event Time Altitude Azimuth Distance (km) Brightness Sun altitude
Rises 18:18:46 0° 177° (S) 2,630 ? -8.7°
Reaches altitude 10° 18:20:54 10° 182° (S) 1,746 ? -9.1°
Maximum altitude 18:24:35 54° 260° (W) 633 ? -9.8°
Drops below altitude 10° 18:28:18 10° 339° (NNW) 1,753 ? -10.5°
Sets 18:30:26 0° 344° (NNW) 2,642 ? -10.9°
